Location: Unspecified
(0.0000°N, 1.0000°E)
Time: 18:18:34
(UTC+02:00)

Amateur Radio Satellites - All Passes

Search period start: 29 June 2016 17:48
Search period end: 30 June 2016 17:48
Location: Unspecified, 0.0000°N, 1.0000°E

Satellite Date Start Highest point End Downlink Frequencies (MHz)
Time Altitude Azimuth
STARS 29 Jun 18:05:52 18:10:12 58° 282° (WNW) 18:14:35 437.465
GONETS M04 29 Jun 18:20:05 18:26:47 25° 93° (E) 18:33:25
AIST 1 29 Jun 18:49:25 18:52:02 16° 273° (W) 18:54:39
ISS 29 Jun 18:54:22 18:57:36 65° 55° (NE) 19:00:50 145.825
SRMSAT 29 Jun 18:55:41 18:57:26 11° 353° (N) 18:59:12 437.500
CUBESAT XI-V 29 Jun 19:01:31 19:06:06 83° 280° (W) 19:10:42 437.345
NOAA 15 29 Jun 19:04:52 19:09:34 32° 77° (ENE) 19:14:13 137.62
HORYU 2 29 Jun 19:14:58 19:18:17 21° 258° (WSW) 19:21:35 437.375
JUGNU 29 Jun 19:30:04 19:32:35 13° 9° (N) 19:35:05 437.505
Cosmos 2499 29 Jun 19:34:00 19:41:32 59° 93° (E) 19:49:38 435.465 / 435.565
Cubesat XI-IV 29 Jun 19:44:35 19:49:51 63° 77° (ENE) 19:55:07 437.490
DOVE 4 29 Jun 19:45:02 19:46:48 12° 80° (E) 19:48:32 437.250
NOAA 18 29 Jun 19:46:05 19:51:32 74° 76° (ENE) 19:56:57 137.9125
BRITE-PL 29 Jun 19:54:12 19:59:41 61° 258° (WSW) 20:04:48 437.365/2234.400
LilacSat-2 29 Jun 19:58:21 20:02:05 73° 258° (WSW) 20:05:51 437.200
GONETS M04 29 Jun 20:15:09 20:23:12 42° 273° (W) 20:31:14
CUTE-I 29 Jun 20:18:45 20:23:53 50° 258° (WSW) 20:29:01 437.470
GOMX 1 29 Jun 20:23:45 20:28:50 65° 258° (WSW) 20:33:33 467.674
STRAND 1 29 Jun 20:43:38 20:48:42 68° 102° (ESE) 20:53:48 437.568
NOAA 15 29 Jun 20:45:51 20:49:02 16° 257° (WSW) 20:52:14 137.62
AO-85 29 Jun 21:08:04 21:13:22 90° 297° (WNW) 21:18:49 145.980
CANX-2 29 Jun 21:09:33 21:13:28 36° 78° (ENE) 21:17:22 2200.000
COMPASS 1 29 Jun 21:09:59 21:11:30 12° 78° (ENE) 21:13:01 437.405
JUGNU 29 Jun 21:17:30 21:22:19 25° 17° (NNE) 21:27:08 437.505
DOVE 4 29 Jun 21:20:13 21:24:19 30° 257° (WSW) 21:28:13 437.250
CUTE 1.7 + AOD 2 29 Jun 21:29:04 21:33:15 60° 79° (ENE) 21:37:27 437.475
Cosmos 2499 29 Jun 21:30:36 21:34:29 14° 275° (W) 21:38:29 435.465 / 435.565
SEEDS 29 Jun 21:31:28 21:35:26 41° 79° (ENE) 21:39:25 437.485
DANDE 29 Jun 21:36:30 21:38:21 16° 268° (W) 21:40:06 436.750
PRISM 29 Jun 21:39:33 21:43:07 30° 102° (ESE) 21:46:43 437.425
HO-68 29 Jun 21:44:08 21:51:19 90° 28° (NNE) 21:58:28 435.675
CUBEBUG 2 29 Jun 21:59:06 22:02:56 36° 79° (ENE) 22:06:44 437.445
AAUSAT CUBESAT 2 29 Jun 22:07:34 22:11:43 68° 78° (ENE) 22:15:52 437.432
CINEMA 3 29 Jun 22:08:57 22:12:41 29° 258° (WSW) 22:16:18 145.822/145.860
RS-15 29 Jun 22:12:36 22:21:58 26° 67° (ENE) 22:31:01 29.354- 29.394
ZACube-1 29 Jun 22:21:15 22:24:44 26° 78° (ENE) 22:28:13 437.345
M-CUBED/EXP-1 PRIME 29 Jun 22:24:53 22:28:22 58° 75° (ENE) 22:31:38 437.505
Oscar 11 29 Jun 22:28:32 22:32:34 39° 78° (ENE) 22:36:35 145.826/435.025
SRMSAT 29 Jun 22:34:21 22:37:59 16° 13° (NNE) 22:41:37 437.500
FUNcube-1 29 Jun 22:37:47 22:41:42 43° 78° (ENE) 22:45:38 145.935
COMPASS 1 29 Jun 22:43:18 22:46:48 26° 259° (WSW) 22:50:17 437.405
UWE-3 29 Jun 22:43:59 22:48:07 75° 260° (W) 22:52:14 435.000/436.395/437.385
JUGNU 29 Jun 23:05:40 23:11:33 64° 21° (NNE) 23:17:24 437.505
AUBIESAT-1 29 Jun 23:19:43 23:22:21 20° 253° (WSW) 23:24:54 437.475
HUMSAT D 29 Jun 23:24:52 23:28:33 32° 78° (ENE) 23:32:14 437.325/437.525
ANTELSAT 29 Jun 23:26:01 23:30:14 33° 102° (ESE) 23:34:26 437.575/2403.000
DELFI C3 29 Jun 23:45:54 23:49:37 37° 258° (WSW) 23:53:20 145.870
ZACube-1 29 Jun 23:59:47 00:00:46 11° 258° (WSW) 00:01:43 437.345
TIGRISAT 30 Jun 00:16:53 00:21:27 52° 282° (WNW) 00:26:00 435.000
CUBEBUG 1 30 Jun 00:18:52 00:20:31 12° 78° (ENE) 00:22:09 437.445
SRMSAT 30 Jun 00:22:11 00:27:36 37° 20° (NNE) 00:33:03 437.500
NANOSAT C BR1 30 Jun 00:22:14 00:25:04 17° 102° (ESE) 00:27:53 145.865
RS-15 30 Jun 00:22:15 00:34:08 59° 250° (WSW) 00:45:33 29.354- 29.394
UNISAT 6 30 Jun 00:22:34 00:26:58 40° 282° (WNW) 00:31:21 437.425
QB50P1 30 Jun 00:25:29 00:28:42 21° 102° (ESE) 00:31:55 145.935-145.965
POPSAT HIP 1 30 Jun 00:28:40 00:32:02 23° 102° (ESE) 00:35:24 437.405
VELOX 1 30 Jun 00:28:57 00:31:33 15° 78° (ENE) 00:34:08 145.980
QB50P2 30 Jun 00:40:40 00:44:37 37° 102° (ESE) 00:48:36 145.880/145.840
DUCHIFAT 1 30 Jun 00:41:19 00:45:03 30° 102° (ESE) 00:48:48 145.980
POLYITAN 1 30 Jun 00:43:16 00:47:15 39° 102° (ESE) 00:51:16 437.675
YUBILEINY 30 Jun 00:54:42 01:02:28 35° 87° (E) 01:10:12 435.215
JUGNU 30 Jun 00:54:57 01:00:36 46° 200° (SSW) 01:06:13 437.505
UKube-1 30 Jun 01:02:46 01:06:18 25° 78° (ENE) 01:09:50 .
SPROUT 30 Jun 01:03:09 01:05:37 15° 78° (ENE) 01:08:05 437.525
ANTELSAT 30 Jun 01:04:52 01:06:39 12° 282° (WNW) 01:08:27 437.575/2403.000
AISAT 30 Jun 01:08:05 01:12:30 62° 78° (ENE) 01:16:50 437.250
ESTCUBE 1 30 Jun 01:08:31 01:13:03 74° 257° (WSW) 01:17:34 437.505/2401.250
DX 1 30 Jun 01:24:02 01:28:23 71° 78° (ENE) 01:32:43 434.975-435.025
BEESAT 3 30 Jun 01:25:44 01:28:45 21° 112° (ESE) 01:31:47 437.485
BUGSAT 1 30 Jun 01:31:57 01:36:05 61° 102° (ESE) 01:40:16 437.445
Cosmos 2491 30 Jun 01:36:20 01:45:11 84° 93° (E) 01:53:58 435.465 / 435.565
50 SAT 30 Jun 01:42:21 01:45:36 30° 259° (WSW) 01:48:51 437.505
PCSat 30 Jun 01:44:50 01:50:13 67° 109° (ESE) 01:55:33 145.827
CUBEBUG 1 30 Jun 01:52:45 01:56:33 28° 258° (WSW) 02:00:17 437.445
JAS-2 30 Jun 01:55:34 02:00:30 46° 103° (ESE) 02:05:35 435.910
NANOSAT C BR1 30 Jun 01:57:33 02:00:31 19° 282° (WNW) 02:03:30 145.865
QB50P1 30 Jun 02:01:40 02:04:12 16° 282° (WNW) 02:06:45 145.935-145.965
VELOX 1 30 Jun 02:04:15 02:07:45 23° 258° (WSW) 02:11:13 145.980
POPSAT HIP 1 30 Jun 02:05:15 02:07:32 14° 282° (WNW) 02:09:51 437.405
BEESAT 2 30 Jun 02:05:20 02:08:59 37° 112° (ESE) 02:12:37 435.950
O/OREOS (USA 219) 30 Jun 02:07:19 02:10:56 23° 105° (ESE) 02:14:31 437.305
SRMSAT 30 Jun 02:10:56 02:16:51 80° 201° (SSW) 02:22:47 437.500
TISAT 1 30 Jun 02:17:52 02:21:33 30° 78° (ENE) 02:25:11 437.305
DUCHIFAT 1 30 Jun 02:20:01 02:20:28 10° 282° (WNW) 02:20:56 145.980
Oscar 19 30 Jun 02:24:10 02:28:32 28° 103° (ESE) 02:32:54 437.125/150
SPROUT 30 Jun 02:38:07 02:41:19 21° 258° (WSW) 02:44:30 437.525
UKube-1 30 Jun 02:40:01 02:42:05 13° 257° (WSW) 02:44:09 .
JUGNU 30 Jun 02:45:52 02:49:57 19° 195° (SSW) 02:54:01 437.505
Gurwin Techsat 1B 30 Jun 02:51:25 02:55:20 21° 103° (ESE) 02:59:14 435.225
YUBILEINY 30 Jun 02:51:30 02:58:50 30° 267° (W) 03:06:15 435.215
BEESAT 3 30 Jun 03:04:36 03:06:11 12° 292° (WNW) 03:07:45 437.485
Cosmos 2504 30 Jun 03:12:19 03:20:48 80° 267° (W) 03:28:42 435.465 / 435.565
SWISSCUBE 30 Jun 03:19:18 03:23:28 30° 78° (ENE) 03:27:37 437.505
PHONESAT 2.4 30 Jun 03:38:02 03:41:03 54° 137° (SE) 03:44:03 2401.200-2431.200
BEESAT 30 Jun 03:43:54 03:48:35 57° 78° (ENE) 03:53:15 436.000
ITUPSAT 1 30 Jun 03:45:46 03:50:28 59° 78° (ENE) 03:55:10 437.325
O/OREOS (USA 219) 30 Jun 03:47:31 03:50:03 15° 284° (WNW) 03:52:35 437.305
SO-50 30 Jun 03:51:28 03:55:32 36° 248° (WSW) 03:59:34 436.795
SRMSAT 30 Jun 04:01:02 04:06:09 30° 198° (SSW) 04:11:17 437.500
Oscar 19 30 Jun 04:04:18 04:07:34 17° 283° (WNW) 04:10:52 437.125/150
AO-7 30 Jun 04:09:09 04:15:11 22° 107° (ESE) 04:21:13 29.400- 29.500
ITAMSAT 1 30 Jun 04:27:50 04:33:02 84° 103° (ESE) 04:38:14 435.822/435.867
Gurwin Techsat 1B 30 Jun 04:30:43 04:34:59 25° 283° (WNW) 04:39:17 435.225
AIST 2 30 Jun 04:35:23 04:39:28 73° 292° (WNW) 04:43:32 435.215
JUGNU 30 Jun 04:38:47 04:39:50 10° 186° (S) 04:40:52 437.505
SWISSCUBE 30 Jun 04:58:36 05:00:58 14° 257° (WSW) 05:03:21 437.505
AIST 1 30 Jun 05:17:36 05:21:10 26° 86° (E) 05:24:45
MOZHAYETS 4 30 Jun 05:48:35 05:53:02 49° 258° (WSW) 05:57:29
KKS-1 30 Jun 05:48:39 05:52:51 41° 258° (WSW) 05:57:00 437.445
HORYU 2 30 Jun 05:50:44 05:54:24 25° 102° (ESE) 05:58:04 437.375
SRMSAT 30 Jun 05:52:52 05:55:55 14° 191° (SSW) 05:58:59 437.500
AO-7 30 Jun 05:59:39 06:07:34 49° 286° (WNW) 06:15:30 29.400- 29.500
STARS 30 Jun 06:17:06 06:21:12 40° 258° (WSW) 06:25:16 437.465
ISS 30 Jun 06:28:15 06:31:17 36° 126° (SE) 06:34:19 145.825
JUGNU 30 Jun 06:29:45 06:30:02 10° 175° (S) 06:30:19 437.505
BRITE-PL 30 Jun 06:44:45 06:47:05 14° 104° (ESE) 06:49:28 437.365/2234.400
Cubesat XI-IV 30 Jun 06:47:43 06:49:36 12° 103° (ESE) 06:51:29 437.490
GONETS M04 30 Jun 06:51:52 07:00:12 49° 87° (E) 07:08:36
NOAA 18 30 Jun 06:52:06 06:55:33 17° 104° (ESE) 06:58:59 137.9125
AIST 1 30 Jun 06:57:33 06:58:30 11° 266° (W) 06:59:25
GOMX 1 30 Jun 07:11:37 07:13:35 13° 104° (ESE) 07:15:36 467.674
CUTE-I 30 Jun 07:18:46 07:23:26 31° 103° (ESE) 07:28:05 437.470
CUBESAT XI-V 30 Jun 07:19:57 07:24:27 46° 258° (WSW) 07:28:57 437.345
HORYU 2 30 Jun 07:28:13 07:30:41 15° 282° (WNW) 07:33:08 437.375
NOAA 15 30 Jun 07:41:34 07:46:48 90° 294° (WNW) 07:52:05 137.62
Cosmos 2499 30 Jun 07:44:32 07:52:45 78° 87° (E) 08:00:20 435.465 / 435.565
LilacSat-2 30 Jun 07:52:42 07:56:35 89° 75° (ENE) 08:00:29 437.200
CUSAT 1 30 Jun 07:55:12 08:03:07 68° 94° (E) 08:10:51 437.405
DOVE 4 30 Jun 08:02:44 08:06:36 25° 103° (ESE) 08:10:38 437.250
JUGNU 30 Jun 08:16:09 08:19:59 18° 166° (SSE) 08:23:49 437.505
BRITE-PL 30 Jun 08:21:47 08:25:16 24° 280° (W) 08:28:56 437.365/2234.400
Cubesat XI-IV 30 Jun 08:24:19 08:29:22 43° 283° (WNW) 08:34:26 437.490
NOAA 18 30 Jun 08:30:57 08:35:54 34° 283° (WNW) 08:40:53 137.9125
DANDE 30 Jun 08:31:04 08:38:38 61° 94° (E) 08:46:54 436.750
GOMX 1 30 Jun 08:47:17 08:51:17 31° 281° (W) 08:55:35 467.674
CINEMA 3 30 Jun 08:47:59 08:51:41 22° 102° (ESE) 08:55:27 145.822/145.860
GONETS M04 30 Jun 08:50:40 08:56:39 20° 267° (W) 09:02:41
CUTE-I 30 Jun 08:59:49 09:03:11 17° 283° (WNW) 09:06:35 437.470
COMPASS 1 30 Jun 09:13:43 09:15:44 13° 102° (ESE) 09:17:43 437.405
CANX-2 30 Jun 09:15:54 09:19:57 45° 101° (ESE) 09:24:00 2200.000
STRAND 1 30 Jun 09:16:25 09:21:20 47° 257° (WSW) 09:26:14 437.568
AO-85 30 Jun 09:22:50 09:26:30 40° 249° (WSW) 09:30:05 145.980
SRMSAT 30 Jun 09:33:56 09:36:34 13° 170° (S) 09:39:11 437.500
CUTE 1.7 + AOD 2 30 Jun 09:35:25 09:39:38 76° 102° (ESE) 09:43:51 437.475
HO-68 30 Jun 09:35:40 09:42:50 77° 104° (ESE) 09:50:02 435.675
SEEDS 30 Jun 09:36:43 09:40:46 49° 102° (ESE) 09:44:48 437.485
CUSAT 1 30 Jun 09:40:35 09:44:49 15° 274° (W) 09:49:01 437.405
DOVE 4 30 Jun 09:40:54 09:44:02 18° 280° (W) 09:47:19 437.250
PRISM 30 Jun 09:42:14 09:46:03 34° 78° (ENE) 09:49:49 437.425
AUBIESAT-1 30 Jun 09:44:42 09:46:56 14° 107° (ESE) 09:49:13 437.475
RS-15 30 Jun 09:56:23 10:03:10 18° 112° (ESE) 10:10:00 29.354- 29.394
JUGNU 30 Jun 10:03:52 10:09:23 41° 160° (SSE) 10:14:56 437.505
CUBEBUG 2 30 Jun 10:10:34 10:15:15 61° 102° (ESE) 10:19:57 437.445
AAUSAT CUBESAT 2 30 Jun 10:11:14 10:15:22 77° 103° (ESE) 10:19:28 437.432
DANDE 30 Jun 10:16:22 10:21:21 18° 276° (W) 10:26:32 436.750
M-CUBED/EXP-1 PRIME 30 Jun 10:23:04 10:27:26 62° 106° (ESE) 10:32:02 437.505
CINEMA 3 30 Jun 10:24:53 10:28:32 21° 281° (W) 10:32:15 145.822/145.860
ZACube-1 30 Jun 10:30:20 10:34:37 40° 102° (ESE) 10:38:53 437.345
Oscar 11 30 Jun 10:37:02 10:41:15 53° 102° (ESE) 10:45:28 145.826/435.025
FUNcube-1 30 Jun 10:46:45 10:51:17 64° 102° (ESE) 10:55:47 145.935
COMPASS 1 30 Jun 10:47:48 10:51:01 22° 282° (WNW) 10:54:14 437.405
UWE-3 30 Jun 10:54:43 10:59:15 53° 282° (WNW) 11:03:49 435.000/436.395/437.385
UNISAT 6 30 Jun 11:01:50 11:03:47 13° 78° (ENE) 11:05:42 437.425
AUBIESAT-1 30 Jun 11:17:13 11:21:03 30° 285° (WNW) 11:25:03 437.475
SRMSAT 30 Jun 11:21:31 11:26:27 26° 162° (SSE) 11:31:23 437.500
HUMSAT D 30 Jun 11:29:26 11:33:26 39° 102° (ESE) 11:37:24 437.325/437.525
ANTELSAT 30 Jun 11:39:22 11:43:27 47° 78° (ENE) 11:47:33 437.575/2403.000
DELFI C3 30 Jun 11:44:49 11:48:29 38° 281° (WNW) 11:52:09 145.870
JUGNU 30 Jun 11:52:33 11:58:27 73° 339° (NNW) 12:04:24 437.505
RS-15 30 Jun 12:04:15 12:15:05 69° 291° (WNW) 12:26:26 29.354- 29.394
Cosmos 2491 30 Jun 12:16:42 12:22:20 19° 87° (E) 12:27:55 435.465 / 435.565
CUBEBUG 1 30 Jun 12:27:44 12:30:27 16° 102° (ESE) 12:33:11 437.445
NANOSAT C BR1 30 Jun 12:27:50 12:30:56 20° 78° (ENE) 12:34:02 145.865
TIGRISAT 30 Jun 12:30:46 12:34:31 31° 258° (WSW) 12:38:17 435.000
QB50P1 30 Jun 12:31:29 12:34:56 25° 78° (ENE) 12:38:20 145.935-145.965
POPSAT HIP 1 30 Jun 12:34:46 12:38:19 27° 78° (ENE) 12:41:51 437.405
UNISAT 6 30 Jun 12:36:48 12:40:14 24° 258° (WSW) 12:43:40 437.425
VELOX 1 30 Jun 12:39:40 12:43:03 22° 102° (ESE) 12:46:27 145.980
PCSat 30 Jun 12:40:35 12:43:12 14° 70° (ENE) 12:45:49 145.827
DUCHIFAT 1 30 Jun 12:46:50 12:50:40 35° 78° (ENE) 12:54:28 145.980
QB50P2 30 Jun 12:47:02 12:51:04 46° 78° (ENE) 12:55:05 145.880/145.840
POLYITAN 1 30 Jun 12:49:40 12:53:42 47° 78° (ENE) 12:57:43 437.675
SPROUT 30 Jun 13:09:50 13:12:57 20° 102° (ESE) 13:16:03 437.525
SRMSAT 30 Jun 13:09:51 13:15:50 67° 159° (SSE) 13:21:49 437.500
UKube-1 30 Jun 13:10:54 13:14:45 32° 103° (ESE) 13:18:37 .
BEESAT 3 30 Jun 13:18:07 13:21:12 22° 68° (ENE) 13:24:17 437.485
AISAT 30 Jun 13:19:38 13:24:02 90° 283° (WNW) 13:28:30 437.250
ESTCUBE 1 30 Jun 13:22:50 13:27:05 45° 282° (WNW) 13:31:22 437.505/2401.250
JAS-2 30 Jun 13:26:45 13:33:41 34° 77° (ENE) 13:40:23 435.910
YUBILEINY 30 Jun 13:27:22 13:35:58 68° 93° (E) 13:44:35 435.215
50 SAT 30 Jun 13:32:08 13:35:35 43° 282° (WNW) 13:39:03 437.505
DX 1 30 Jun 13:33:34 13:37:53 84° 284° (WNW) 13:42:16 434.975-435.025
Cosmos 2504 30 Jun 13:34:48 13:37:58 13° 92° (E) 13:41:10 435.465 / 435.565
BUGSAT 1 30 Jun 13:35:22 13:39:25 69° 79° (E) 13:43:25 437.445
JUGNU 30 Jun 13:42:38 13:47:38 28° 342° (NNW) 13:52:40 437.505
BEESAT 2 30 Jun 13:58:50 14:02:33 39° 68° (ENE) 14:06:16 435.950
CUBEBUG 1 30 Jun 14:03:16 14:06:28 20° 282° (WNW) 14:09:43 437.445
NANOSAT C BR1 30 Jun 14:04:02 14:06:24 15° 258° (WSW) 14:08:47 145.865
QB50P1 30 Jun 14:08:46 14:10:26 12° 258° (WSW) 14:12:06 145.935-145.965
Cosmos 2491 30 Jun 14:10:22 14:18:44 52° 267° (W) 14:27:11 435.465 / 435.565
POPSAT HIP 1 30 Jun 14:12:40 14:13:50 11° 258° (WSW) 14:15:00 437.405
VELOX 1 30 Jun 14:16:35 14:19:14 16° 282° (WNW) 14:21:55 145.980
O/OREOS (USA 219) 30 Jun 14:17:34 14:21:46 39° 76° (ENE) 14:26:01 437.305
PCSat 30 Jun 14:21:22 14:26:20 38° 251° (WSW) 14:31:19 145.827
TISAT 1 30 Jun 14:22:49 14:26:42 37° 102° (ESE) 14:30:38 437.305
SO-50 30 Jun 14:24:20 14:27:51 20° 112° (ESE) 14:31:24 436.795
SPROUT 30 Jun 14:45:52 14:48:37 17° 282° (WNW) 14:51:24 437.525
BEESAT 3 30 Jun 14:57:07 14:58:38 12° 248° (WSW) 15:00:09 437.485
Oscar 19 30 Jun 14:57:09 15:02:20 75° 78° (ENE) 15:07:28 437.125/150
SRMSAT 30 Jun 14:59:22 15:05:05 45° 340° (NNW) 15:10:48 437.500
PHONESAT 2.4 30 Jun 15:06:15 15:09:00 29° 43° (NE) 15:11:44 2401.200-2431.200
JAS-2 30 Jun 15:11:33 15:18:16 32° 256° (WSW) 15:24:54 435.910
Cosmos 2504 30 Jun 15:23:19 15:30:46 62° 274° (W) 15:38:46 435.465 / 435.565
ITAMSAT 1 30 Jun 15:26:20 15:28:51 14° 77° (ENE) 15:31:21 435.822/435.867
Gurwin Techsat 1B 30 Jun 15:28:37 15:33:51 61° 77° (ENE) 15:39:04 435.225
YUBILEINY 30 Jun 15:28:45 15:32:22 13° 273° (W) 15:36:01 435.215
JUGNU 30 Jun 15:34:29 15:37:19 13° 350° (N) 15:40:10 437.505
SWISSCUBE 30 Jun 15:40:42 15:45:23 59° 102° (ESE) 15:50:04 437.505
SO-50 30 Jun 16:04:21 16:08:05 22° 292° (WNW) 16:11:52 436.795
BEESAT 30 Jun 16:05:41 16:10:27 73° 281° (WNW) 16:15:11 436.000
ITUPSAT 1 30 Jun 16:08:00 16:12:44 70° 282° (WNW) 16:17:29 437.325
KKS-1 30 Jun 16:27:01 16:28:55 13° 103° (ESE) 16:30:49 437.445
MOZHAYETS 4 30 Jun 16:30:49 16:32:51 13° 102° (ESE) 16:34:53
AIST 2 30 Jun 16:33:42 16:37:46 57° 248° (WSW) 16:41:50 435.215
AO-7 30 Jun 16:34:04 16:41:31 37° 74° (ENE) 16:48:57 29.400- 29.500
PHONESAT 2.4 30 Jun 16:44:18 16:45:29 12° 222° (SW) 16:46:40 2401.200-2431.200
SRMSAT 30 Jun 16:50:28 16:54:38 19° 345° (NNW) 16:58:47 437.500
STARS 30 Jun 16:54:09 16:55:53 12° 103° (ESE) 16:57:37 437.465
ITAMSAT 1 30 Jun 17:03:18 17:08:02 36° 257° (WSW) 17:12:46 435.822/435.867
AIST 1 30 Jun 17:23:51 17:27:55 38° 94° (E) 17:31:56
